Iki Airport


Codes: RJDB/IKI
Name: Iki Airport
City: Iki
Country: Japan
Elevation: 41 ft.
Wikipedia:

Photos at Iki Airport


   Photos courtesy of SpottingLog. You can add your own sightings and photos by signing up for a free trial today.



No photos found.

Weather at Iki Airport


Time (UTC)DescriptionTempratureWindCloud coverageVisibilityPressureHumidity
21-Jun-2024 12:00Overcast Clouds23°C7 mph, SW100%10000m1004hPa84%
21-Jun-2024 15:00Overcast Clouds23°C7 mph, S100%10000m1005hPa87%
21-Jun-2024 18:00Overcast Clouds23°C9 mph, S100%10000m1004hPa89%
21-Jun-2024 21:00Light Rain23°C11 mph, S100%6025m1002hPa95%
22-Jun-2024 00:00Moderate Rain23°C22 mph, S100%9021m1003hPa97%
22-Jun-2024 03:00Moderate Rain23°C25 mph, S100%10000m1003hPa96%
22-Jun-2024 06:00Moderate Rain24°C27 mph, SW100%10000m1001hPa95%
22-Jun-2024 09:00Moderate Rain24°C29 mph, S100%3042m1000hPa96%
22-Jun-2024 12:00Heavy Intensity Rain24°C38 mph, SW100%10000m1001hPa94%
22-Jun-2024 15:00Light Rain23°C27 mph, SW100%10000m1002hPa97%
22-Jun-2024 18:00Light Rain23°C25 mph, SW100%4360m1001hPa98%
22-Jun-2024 21:00Light Rain23°C25 mph, SW100%10000m1001hPa97%
23-Jun-2024 00:00Heavy Intensity Rain23°C25 mph, SW100%1246m1001hPa98%
23-Jun-2024 03:00Heavy Intensity Rain23°C31 mph, SW100%8753m1001hPa96%
23-Jun-2024 06:00Moderate Rain23°C25 mph, SW100%10000m1001hPa98%
23-Jun-2024 09:00Light Rain23°C20 mph, SW100%10000m1002hPa98%
23-Jun-2024 12:00Light Rain23°C20 mph, SW100%10000m1003hPa98%
23-Jun-2024 15:00Light Rain23°C20 mph, SW100%10000m1004hPa98%
23-Jun-2024 18:00Overcast Clouds23°C20 mph, SW100%10000m1003hPa96%
23-Jun-2024 21:00Overcast Clouds23°C18 mph, S100%10000m1004hPa95%
24-Jun-2024 00:00Light Rain24°C25 mph, S100%10000m1005hPa82%
24-Jun-2024 03:00Overcast Clouds23°C25 mph, S100%10000m1006hPa84%
24-Jun-2024 06:00Overcast Clouds24°C25 mph, SW100%10000m1005hPa88%
24-Jun-2024 09:00Overcast Clouds22°C25 mph, SW100%10000m1006hPa93%
24-Jun-2024 12:00Overcast Clouds22°C22 mph, SW100%10000m1008hPa90%
24-Jun-2024 15:00Light Rain22°C20 mph, SW100%10000m1008hPa90%
24-Jun-2024 18:00Light Rain22°C16 mph, SW100%10000m1008hPa88%
24-Jun-2024 21:00Light Rain22°C13 mph, SW100%10000m1009hPa76%
25-Jun-2024 00:00Light Rain22°C16 mph, SW100%10000m1010hPa74%
25-Jun-2024 03:00Light Rain21°C16 mph, SW100%10000m1011hPa77%
25-Jun-2024 06:00Overcast Clouds22°C16 mph, SW100%10000m1011hPa76%
25-Jun-2024 09:00Overcast Clouds22°C13 mph, SW100%10000m1011hPa76%
25-Jun-2024 12:00Overcast Clouds22°C16 mph, SW100%10000m1013hPa80%
25-Jun-2024 15:00Overcast Clouds22°C16 mph, SW100%10000m1013hPa83%
25-Jun-2024 18:00Overcast Clouds22°C11 mph, SW100%10000m1013hPa84%
25-Jun-2024 21:00Overcast Clouds22°C9 mph, W99%10000m1014hPa78%
26-Jun-2024 00:00Overcast Clouds23°C7 mph, SW99%10000m1015hPa75%
26-Jun-2024 03:00Overcast Clouds23°C9 mph, SW95%10000m1016hPa75%
26-Jun-2024 06:00Overcast Clouds23°C11 mph, W98%10000m1015hPa72%
26-Jun-2024 09:00Overcast Clouds23°C9 mph, W100%10000m1016hPa72%